timestamp,wind_dir_avg,wind_spd_avg,wind_spd_max_dir,wind_spd_gust,battery_voltage,lat,long
2021-09-20 00:04:01+00:00,30.0,14.85,31.0,17.35,12.65,47.59359,-54.27349
2021-09-20 00:14:01+00:00,36.0,14.77,37.0,16.2,12.65,47.59359,-54.27349
2021-09-20 00:24:01+00:00,37.0,14.91,40.0,17.36,12.65,47.59359,-54.27349
2021-09-20 00:34:01+00:00,36.0,15.45,37.0,18.25,12.65,47.59359,-54.27349
2021-09-20 00:44:01+00:00,35.0,14.2,33.0,16.92,12.65,47.59359,-54.27349
2021-09-20 00:54:01+00:00,34.0,15.74,41.0,17.54,12.65,47.59359,-54.27349
2021-09-20 01:04:01+00:00,36.0,15.22,32.0,16.82,12.65,47.59359,-54.27349
2021-09-20 01:14:01+00:00,37.0,17.15,42.0,19.92,12.65,47.59359,-54.27349
2021-09-20 01:24:01+00:00,36.0,14.76,39.0,18.9,12.65,47.59359,-54.27349
2021-09-20 01:34:01+00:00,34.0,15.81,34.0,18.33,12.65,47.59359,-54.27349
2021-09-20 01:44:01+00:00,31.0,15.04,32.0,17.2,12.65,47.59359,-54.27349
2021-09-20 01:54:01+00:00,33.0,14.68,30.0,17.09,12.65,47.59359,-54.27349
2021-09-20 02:04:01+00:00,29.0,15.65,30.0,17.44,12.65,47.59359,-54.27349
2021-09-20 02:14:01+00:00,30.0,16.5,41.0,18.78,12.57,47.59359,-54.27349
2021-09-20 02:24:01+00:00,30.0,15.44,29.0,17.75,12.57,47.59359,-54.27349
2021-09-20 02:34:01+00:00,28.0,17.14,33.0,19.9,12.57,47.59359,-54.27349
2021-09-20 02:44:01+00:00,26.0,17.8,22.0,20.08,12.57,47.59359,-54.27349
2021-09-20 02:54:01+00:00,27.0,16.58,24.0,19.46,12.57,47.59359,-54.27349
2021-09-20 03:04:01+00:00,25.0,17.51,23.0,19.94,12.57,47.59359,-54.27349
2021-09-20 03:14:00+00:00,23.0,16.53,21.0,20.32,12.57,47.59359,-54.27349
2021-09-20 03:24:00+00:00,22.0,17.84,20.0,21.26,12.57,47.59359,-54.27349
2021-09-20 03:34:00+00:00,23.0,15.42,20.0,19.76,12.57,47.59359,-54.27349
2021-09-20 03:44:00+00:00,23.0,18.02,23.0,20.4,12.57,47.59359,-54.27349
2021-09-20 03:54:00+00:00,24.0,16.1,23.0,18.65,12.57,47.59359,-54.27349
2021-09-20 04:04:00+00:00,22.0,14.19,26.0,18.02,12.57,47.59359,-54.27349
2021-09-20 04:14:00+00:00,22.0,17.01,22.0,19.7,12.57,47.59359,-54.27349
2021-09-20 04:24:00+00:00,22.0,15.96,22.0,18.1,12.57,47.59359,-54.27349
2021-09-20 04:34:00+00:00,23.0,15.97,24.0,17.86,12.57,47.59359,-54.27349
2021-09-20 04:44:00+00:00,19.0,14.92,19.0,19.32,12.57,47.59359,-54.27349
2021-09-20 04:54:00+00:00,19.0,17.39,21.0,20.05,12.57,47.59359,-54.27349
2021-09-20 05:04:00+00:00,15.0,17.33,10.0,21.05,12.57,47.59359,-54.27349
2021-09-20 05:14:00+00:00,17.0,16.88,18.0,20.0,12.57,47.59359,-54.27349
2021-09-20 05:24:00+00:00,10.0,15.35,14.0,18.16,12.57,47.59359,-54.27349
2021-09-20 05:34:00+00:00,10.0,16.36,12.0,21.12,12.57,47.59359,-54.27349
2021-09-20 05:44:00+00:00,13.0,16.53,19.0,21.85,12.57,47.59359,-54.27349
2021-09-20 05:54:00+00:00,6.0,15.84,17.0,19.44,12.57,47.59359,-54.27349
2021-09-20 06:04:00+00:00,1.0,16.54,355.0,20.8,12.57,47.59359,-54.27349
2021-09-20 06:14:00+00:00,7.0,17.91,6.0,21.51,12.49,47.59359,-54.27349
2021-09-20 06:24:00+00:00,15.0,16.59,10.0,20.99,12.49,47.59359,-54.27349
2021-09-20 06:34:00+00:00,10.0,16.14,13.0,18.76,12.49,47.59359,-54.27349
2021-09-20 06:44:00+00:00,4.0,14.66,0.0,17.75,12.49,47.59359,-54.27349
2021-09-20 06:54:00+00:00,6.0,14.94,14.0,19.48,12.49,47.59359,-54.27349
2021-09-20 07:04:00+00:00,14.0,15.4,15.0,18.85,12.49,47.59359,-54.27349
2021-09-20 07:14:01+00:00,12.0,14.84,14.0,18.8,12.49,47.59359,-54.27349
2021-09-20 07:24:01+00:00,15.0,16.59,13.0,18.99,12.49,47.59359,-54.27349
2021-09-20 07:34:01+00:00,12.0,16.59,21.0,19.87,12.49,47.59359,-54.27349
2021-09-20 07:44:01+00:00,14.0,16.61,21.0,19.0,12.49,47.59359,-54.27349
2021-09-20 07:54:01+00:00,11.0,15.46,12.0,19.04,12.49,47.59359,-54.27349
2021-09-20 08:04:01+00:00,4.0,13.27,15.0,17.25,12.49,47.59359,-54.27349
2021-09-20 08:14:01+00:00,2.0,14.36,353.0,18.21,12.41,47.59359,-54.27349
2021-09-20 08:24:01+00:00,14.0,14.94,11.0,17.52,12.41,47.59359,-54.27349
2021-09-20 08:34:01+00:00,6.0,13.86,15.0,18.27,12.41,47.59359,-54.27349
2021-09-20 08:44:01+00:00,16.0,17.12,13.0,20.55,12.41,47.59359,-54.27349
2021-09-20 08:54:01+00:00,18.0,15.96,21.0,18.91,12.41,47.59359,-54.27349
2021-09-20 09:04:01+00:00,21.0,14.53,23.0,17.73,12.41,47.59359,-54.27349
2021-09-20 09:14:00+00:00,19.0,14.35,17.0,17.33,12.41,47.59359,-54.27349
2021-09-20 09:24:00+00:00,13.0,15.93,9.0,18.59,12.41,47.59359,-54.27349
2021-09-20 09:34:00+00:00,16.0,13.97,17.0,18.56,12.41,47.59359,-54.27349
2021-09-20 09:44:00+00:00,26.0,16.69,29.0,18.99,12.41,47.59359,-54.27349
2021-09-20 09:54:00+00:00,21.0,15.97,17.0,19.6,12.41,47.59359,-54.27349
2021-09-20 10:04:00+00:00,21.0,16.34,19.0,18.07,12.41,47.59359,-54.27349
2021-09-20 10:14:01+00:00,26.0,14.25,32.0,16.45,12.41,47.59359,-54.27349
2021-09-20 10:24:01+00:00,15.0,14.98,16.0,17.5,12.41,47.59359,-54.27349
2021-09-20 10:34:01+00:00,16.0,14.08,14.0,16.85,12.41,47.59359,-54.27349
2021-09-20 10:44:01+00:00,20.0,14.02,26.0,16.61,12.41,47.59359,-54.27349
2021-09-20 10:54:01+00:00,22.0,13.16,25.0,16.55,12.41,47.59359,-54.27349
2021-09-20 11:04:01+00:00,20.0,12.73,16.0,14.69,12.41,47.59359,-54.27349
2021-09-20 11:14:01+00:00,22.0,12.44,33.0,14.23,13.92,47.59359,-54.27349
2021-09-20 11:24:01+00:00,24.0,10.77,31.0,13.45,13.92,47.59359,-54.27349
2021-09-20 11:34:01+00:00,16.0,13.93,10.0,18.9,13.92,47.59359,-54.27349
2021-09-20 11:44:01+00:00,16.0,12.9,13.0,14.76,13.92,47.59359,-54.27349
2021-09-20 11:54:01+00:00,14.0,15.24,15.0,18.28,13.92,47.59359,-54.27349
2021-09-20 12:04:01+00:00,14.0,16.04,26.0,18.85,13.92,47.59359,-54.27349
2021-09-20 12:14:01+00:00,19.0,13.68,25.0,17.41,14.24,47.59359,-54.27349
2021-09-20 12:24:01+00:00,9.0,14.57,16.0,17.38,14.24,47.59359,-54.27349
2021-09-20 12:34:01+00:00,20.0,16.04,15.0,19.14,14.24,47.59359,-54.27349
2021-09-20 12:44:01+00:00,14.0,14.81,17.0,17.95,14.24,47.59359,-54.27349
2021-09-20 12:54:01+00:00,19.0,14.22,24.0,18.68,14.24,47.59359,-54.27349
2021-09-20 13:04:01+00:00,27.0,16.24,27.0,19.89,14.24,47.59359,-54.27349
2021-09-20 13:14:01+00:00,26.0,15.87,22.0,17.99,13.84,47.59359,-54.27349
2021-09-20 13:24:01+00:00,9.0,13.9,5.0,17.39,13.84,47.59359,-54.27349
2021-09-20 13:34:01+00:00,22.0,15.5,17.0,19.32,13.84,47.59359,-54.27349
2021-09-20 13:44:01+00:00,15.0,15.07,12.0,18.03,13.84,47.59359,-54.27349
2021-09-20 13:54:01+00:00,15.0,16.04,14.0,19.82,13.84,47.59359,-54.27349
2021-09-20 14:04:01+00:00,14.0,16.09,10.0,19.0,13.84,47.59359,-54.27349
2021-09-20 14:14:01+00:00,18.0,14.1,17.0,16.2,13.68,47.59359,-54.27349
2021-09-20 14:24:01+00:00,7.0,14.06,2.0,16.89,13.68,47.59359,-54.27349
2021-09-20 14:34:01+00:00,10.0,13.44,14.0,16.44,13.68,47.59359,-54.27349
2021-09-20 14:44:01+00:00,15.0,14.74,16.0,16.44,13.68,47.59359,-54.27349
2021-09-20 14:54:01+00:00,19.0,14.19,16.0,17.37,13.68,47.59359,-54.27349
2021-09-20 15:04:01+00:00,19.0,14.98,19.0,18.72,13.68,47.59359,-54.27349
2021-09-20 15:14:01+00:00,359.0,13.98,2.0,16.93,14.32,47.59359,-54.27349
2021-09-20 15:24:01+00:00,11.0,12.72,19.0,17.2,14.32,47.59359,-54.27349
2021-09-20 15:34:01+00:00,14.0,12.1,20.0,14.22,14.32,47.59359,-54.27349
2021-09-20 15:44:01+00:00,9.0,15.09,12.0,17.47,14.32,47.59359,-54.27349
2021-09-20 15:54:01+00:00,20.0,17.66,19.0,20.49,14.32,47.59359,-54.27349
2021-09-20 16:04:01+00:00,23.0,13.83,26.0,16.54,14.32,47.59359,-54.27349
2021-09-20 16:14:01+00:00,4.0,10.84,15.0,13.07,13.68,47.59359,-54.27349
2021-09-20 16:24:01+00:00,6.0,12.65,18.0,16.54,13.68,47.59359,-54.27349
2021-09-20 16:34:01+00:00,17.0,12.95,14.0,14.59,13.68,47.59359,-54.27349
2021-09-20 16:44:01+00:00,1.0,11.95,0.0,14.19,13.68,47.59359,-54.27349
2021-09-20 16:54:01+00:00,10.0,12.27,14.0,16.25,13.68,47.59359,-54.27349
2021-09-20 17:04:01+00:00,25.0,11.82,30.0,13.95,13.68,47.59359,-54.27349
2021-09-20 17:14:01+00:00,11.0,12.72,13.0,14.74,14.32,47.59359,-54.27349
2021-09-20 17:24:01+00:00,9.0,10.6,18.0,12.99,14.32,47.59359,-54.27349
2021-09-20 17:34:01+00:00,15.0,12.34,20.0,14.81,14.32,47.59359,-54.27349
2021-09-20 17:44:01+00:00,16.0,12.61,13.0,13.98,14.32,47.59359,-54.27349
2021-09-20 17:54:01+00:00,5.0,11.96,2.0,15.04,14.32,47.59359,-54.27349
2021-09-20 18:04:01+00:00,21.0,10.99,26.0,13.16,14.32,47.59359,-54.27349
2021-09-20 18:14:01+00:00,23.0,11.58,28.0,13.23,14.32,47.59359,-54.27349
2021-09-20 18:24:01+00:00,17.0,10.85,27.0,13.01,14.32,47.59359,-54.27349
2021-09-20 18:34:01+00:00,22.0,9.32,19.0,10.7,14.32,47.59359,-54.27349
2021-09-20 18:44:01+00:00,11.0,9.63,13.0,11.59,14.32,47.59359,-54.27349
2021-09-20 18:54:01+00:00,22.0,11.96,20.0,14.19,14.32,47.59359,-54.27349
2021-09-20 19:04:01+00:00,7.0,11.43,16.0,12.64,14.32,47.59359,-54.27349
2021-09-20 19:14:01+00:00,16.0,11.67,15.0,13.51,13.92,47.59359,-54.27349
2021-09-20 19:24:01+00:00,9.0,9.91,11.0,11.71,13.92,47.59359,-54.27349
2021-09-20 19:34:01+00:00,8.0,9.26,359.0,11.55,13.92,47.59359,-54.27349
2021-09-20 19:44:01+00:00,14.0,12.44,16.0,14.4,13.92,47.59359,-54.27349
2021-09-20 19:54:01+00:00,19.0,9.82,18.0,11.81,13.92,47.59359,-54.27349
2021-09-20 20:04:01+00:00,21.0,11.67,20.0,13.89,13.92,47.59359,-54.27349
2021-09-20 20:14:01+00:00,21.0,13.58,27.0,15.28,13.92,47.59359,-54.27349
2021-09-20 20:24:01+00:00,19.0,13.87,18.0,16.18,13.92,47.59359,-54.27349
2021-09-20 20:34:01+00:00,16.0,12.11,18.0,13.78,13.92,47.59359,-54.27349
2021-09-20 20:44:01+00:00,10.0,10.64,8.0,12.5,13.92,47.59359,-54.27349
2021-09-20 20:54:01+00:00,3.0,11.08,5.0,12.89,13.92,47.59359,-54.27349
2021-09-20 21:04:01+00:00,10.0,10.87,15.0,12.71,13.92,47.59359,-54.27349
2021-09-20 21:14:01+00:00,14.0,12.99,18.0,14.88,13.44,47.59359,-54.27349
2021-09-20 21:24:01+00:00,7.0,10.64,5.0,13.06,13.44,47.59359,-54.27349
2021-09-20 21:34:01+00:00,28.0,11.13,29.0,12.29,13.44,47.59359,-54.27349
2021-09-20 21:44:01+00:00,19.0,12.17,16.0,14.34,13.44,47.59359,-54.27349
2021-09-20 21:54:01+00:00,14.0,11.4,10.0,13.15,13.44,47.59359,-54.27349
2021-09-20 22:04:01+00:00,31.0,9.35,30.0,10.45,13.44,47.59359,-54.27349
2021-09-20 22:14:01+00:00,22.0,9.82,26.0,11.16,12.89,47.59359,-54.27349
2021-09-20 22:24:01+00:00,26.0,7.08,24.0,8.69,12.89,47.59359,-54.27349
2021-09-20 22:34:01+00:00,27.0,6.95,21.0,8.28,12.89,47.59359,-54.27349
2021-09-20 22:44:01+00:00,29.0,7.12,31.0,8.39,12.89,47.59359,-54.27349
2021-09-20 22:54:01+00:00,23.0,7.56,18.0,8.7,12.89,47.59359,-54.27349
2021-09-20 23:04:01+00:00,25.0,7.87,21.0,9.45,12.89,47.59359,-54.27349
2021-09-20 23:14:00+00:00,27.0,8.15,21.0,9.25,12.65,47.59359,-54.27349
2021-09-20 23:24:00+00:00,26.0,8.5,23.0,9.52,12.65,47.59359,-54.27349
2021-09-20 23:34:00+00:00,17.0,8.69,14.0,10.48,12.65,47.59359,-54.27349
2021-09-20 23:44:00+00:00,16.0,8.18,12.0,8.95,12.65,47.59359,-54.27349
2021-09-20 23:54:00+00:00,17.0,7.27,9.0,8.41,12.65,47.59359,-54.27349
